DELTA 1 DEB, 7958

Orbit data source: Space-Track

DELTA 1 DEB, 7958 is space debris in SSO originally from a launch on Sun, 23 Jul 1972 UTC launched from the Air Force Western Test Range (AFWTR). Debris objects in space refer to the collection of defunct objects orbiting the Earth. Examples of debris include non-operational satellites, rocket bodies, and fragments generated from explosions, collisions, or faulty payload assembly.

Loading next visibility...
Identifier
7958, 1972-058CN
Orbit
SSO
Country
Flag of USUS
Related business
Manufacturer
Unknown
Mission
Spacecraft
Bus & Motor
Unknown
Mass
Unknown
Launch date (UTC)
1972-07-23 (53 years ago)
Launch vehicle
Unknown
Launch site
Air Force Western Test Range (AFWTR)
Object type
Payload
Rocket body
Debris
Shape & HBR
Unknown shape, 0.2 m
Radar Cross Section
Medium (>0.1 m² and <1 m²)

Expand to show TLE details & history
Last TLE update: 12 hours ago

TLE from 12 hours ago
0 DELTA 1 DEB
1  7958U 72058CN  25296.13494213  .00001394  00000-0  62141-3 0  9996
2  7958  97.6837 171.1638 0301057  86.3547 277.1995 14.02528254673039
Epoch: 2025-10-23T03:14Z
TLE epoch observation values (Epoch: 2025-10-23T03:14:19.000Z)
Latitude
0.00006°
Longitude
90.78608°
Altitude
867.082 km
Speed
7.43 km/s
True Right ascension
11h 24m 39s
True Declination
0° 00' 00"
Sunlit
Object was in daylight at epoch
Visualization orbit readout
Latitude
Unknown
Longitude
Unknown
Altitude
Unknown
Speed
Unknown
Apparent Right ascension
Unknown
Apparent Declination
Unknown
Sunlit
N/A
Visualization observer readout
Local Sidereal Time
10:14:41
Azimuth
Unknown
Elevation
Unknown
Doppler factor
Unknown
Orbital elements
Apogee altitude
1,100.763 km
Perigee altitude
663.608 km
Semi-major axis
7,260.323 km
Eccentricity
0.03011
Inclination
97.6837°
RAAN
171.1638°
Arg. of periapsis
86.3547°
True anomaly
273.76269°
Mean anomaly
277.1995°
Eccentric anomaly
275.48246°
Mean motion
3.5084 °/min
Orbital period
102.61 mins
BSTAR
0.00062141
Loading maneuver chart data...
Computing Atmospheric mass density...

Documentation

Showing up to 5 results
|